sat.trackr.live / text

‹ back to catalog

STARLINK-11394 [DTC]

NORAD 62218 · 2024-231A

PAYLOAD ACTIVE UNKNOWN

§ Identity

Operator
Country
US
Launch date
2024-12-05
Launch site
AFWTR
Launch vehicle
Mass (kg)
RCS (m²)

Purposes: comms

External: N2YO · Heavens-Above · Gunter

§ Orbital elements

Epoch: 2026-05-25T02:34:50.356128Z

Period
91.73 min
Inclination
53.1568°
Eccentricity
0.0000923
Mean motion
15.69745731 rev/d
Perigee alt
359.0 km
Apogee alt
360.2 km
Semi-major
6,737.8 km
B*
1.1976e-3
RAAN
84.5664°
Arg perigee
71.9500°
Mean anomaly
288.1619°
Rev number
8,541

§ Raw data

STARLINK-11394 [DTC]1 62218U 24231A   26145.10752727  .00147318  00000+0  11976-2 0  99992 62218  53.1568  84.5664 0000923  71.9500 288.1619 15.69745731 85419

JSON: /api/v1/satellites/62218 · /tle

For live sub-satellite position, see the globe view (requires WebGL).

§ Visibility from observer

Set your observer location to see the next 7 days of passes ≥ 10°. The values pass through the URL so the page stays shareable.

No JS? Fill the form by hand. The geolocation button needs JavaScript.